Regional Weather Roundup
Issued by NWS

Home | Current Version | Previous Version | Text Only | Print | Product List | Glossary Off
Versions: 1 2 3 4 5 6 7 8 9 10 11 12 13 14 15 16 17 18 19 20 21 22 23 24 25 26 27 28 29 30 31 32 33 34 35 36 37 38 39 40 41 42 43 44 45 46 47 48 49 50

000
ASUS43 KDTX 250010
RWRMI
MICHIGAN HOURLY REGIONAL WEATHER ROUNDUP
NATIONAL WEATHER SERVICE DETROIT/PONTIAC MI
700 PM EST MON NOV 24 2014

NOTE: "FAIR" INDICATES FEW OR NO CLOUDS BELOW 12,000 FEET WITH NO
SIGNIFICANT WEATHER AND/OR OBSTRUCTION TO VISIBILITY.

MIZ047>049-052>055-059>063-066>070-074>076-081>083-250100-
SOUTHEAST LOWER MICHIGAN

CITY           SKY/WX    TMP DP  RH WIND       PRES   REMARKS
ADRIAN         CLOUDY    36  28  73 W20G35    29.60R WCI  25
6HR MIN TEMP:  36; 6HR MAX TEMP:  46; 6HR PCP: TRACE;

ALMA           CLOUDY    34  31  88 SW23G38   29.44R WCI  22
ANN ARBOR      CLOUDY    37  28  70 SW25G36   29.56R WCI  25
BAD AXE        CLOUDY    37  33  84 SW23G32   29.39R WCI  26
6HR MIN TEMP:  37; 6HR MAX TEMP:  54;

CARO           CLOUDY    37  32  81 SW23G38   29.42R WCI  26
DETROIT CITY   CLOUDY    41  29  62 SW21G41   29.54R
6HR MIN TEMP:  41; 6HR MAX TEMP:  59;

DETROIT        CLOUDY    38  28  67 SW30G45   29.58R WCI  26
6HR MIN TEMP:  38; 6HR MAX TEMP:  56; 6HR PCP: TRACE;

FLINT          CLOUDY    38  29  70 SW25G38   29.49R WCI  27
6HR MIN TEMP:  38; 6HR MAX TEMP:  58; 6HR PCP: TRACE;

GROSSE ILE     CLOUDY    39  28  65 SW24G43   29.58R WCI  28
HILLSDALE      CLOUDY    34  30  86 SW21G36   29.58R WCI  22
HOWELL         CLOUDY    34  31  88 SW22G28   29.51R FOG     WCI  22
6HR MIN TEMP:  34; 6HR MAX TEMP:  52;


CITY           SKY/WX    TMP DP  RH WIND       PRES   REMARKS
JACKSON        CLOUDY    34  28  79 SW23G40   29.55R WCI  22
6HR MIN TEMP:  34; 6HR MAX TEMP:  43; 6HR PCP: TRACE;

LAMBERTVILLE   CLOUDY    37  32  81 SW18G26   29.62R WCI  27
LANSING        MIX PCPN  34  28  79 SW29G47   29.50R WCI  20
6HR MIN TEMP:  34; 6HR MAX TEMP:  52; 6HR PCP:  0.14;

LAPEER         CLOUDY    37  31  76 SW21G38   29.46R WCI  27
MASON          CLOUDY    34  31  89 SW17G36   29.52R WCI  23
MONROE         CLOUDY    37  30  75 SW25G40   29.60R WCI  26
MT. CLEMENS    CLOUDY    40  31  69 SW25G40   29.50R WCI  30
6HR MIN TEMP:  40; 6HR MAX TEMP:  59;

PONTIAC        CLOUDY    37  28  70 SW21G32   29.49R WCI  26
PORT HOPE        N/A     38  31  76 SW23G38   29.34R WCI  27
6HR MIN TEMP:  37; 6HR MAX TEMP:  55; 6HR PCP:  0.41;

PORT HURON     CLOUDY    39  32  75 SW24G35   29.49R WCI  28
TRI CITIES     CLOUDY    37  31  78 SW31G51   29.41R WCI  24
6HR MIN TEMP:  37; 6HR MAX TEMP:  53; 6HR PCP:  0.19;

TROY           CLOUDY    40  30  67 SW29G43   29.54R WCI  29
SAGINAW HB     CLOUDY    36  32  87 SW32G43   29.43R WCI  22
$$
MIZ043>046-050>051-056>058-064>065-071>073-077>080-250100-
SOUTHWEST LOWER MICHIGAN

CITY           SKY/WX    TMP DP  RH WIND       PRES   REMARKS
BATTLE CREEK   CLOUDY    34  27  75 SW24G40   29.55R WCI  21
6HR MIN TEMP:  34; 6HR MAX TEMP:  44; 6HR PCP: TRACE;

BENTON HARBOR  CLOUDY    31  27  85 SW23G39   29.61R WCI  18
6HR MIN TEMP:  32; 6HR MAX TEMP:  35; 6HR PCP:  0.04;

BIG RAPIDS     LGT SNOW  33  32  97 SW18G33   29.37R WCI  22
6HR MIN TEMP:  33; 6HR MAX TEMP:  47; 6HR PCP:  0.08;

COLDWATER      LGT SNOW  34  31  91 SW20G32   29.60R WCI  22
6HR MIN TEMP:  34; 6HR MAX TEMP:  41;

FREMONT        LGT SNOW  32  31  96 SW20G35   29.42R WCI  20
HOLLAND        LGT SNOW  34  29  82 SW30G37   29.53R WCI  20
6HR MIN TEMP:  34; 6HR MAX TEMP:  45; 6HR PCP:  0.28;

GRAND RAPIDS   LGT SNOW  33  32  96 SW28G40   29.50R FOG     WCI  20
6HR MIN TEMP:  33; 6HR MAX TEMP:  48; 6HR PCP:  0.08;

IONIA          FLURRIES  34  31  88 SW24G35   29.47R WCI  22
KALAMAZOO      CLOUDY    33  27  78 SW23G41   29.58R WCI  21
6HR MIN TEMP:  33; 6HR MAX TEMP:  41; 6HR PCP:  0.01;

LUDINGTON      LGT SNOW  34  33  96 W20G32    29.36R WCI  23
6HR MIN TEMP:  34; 6HR MAX TEMP:  42; 6HR PCP:  0.40;

MARSHALL       CLOUDY    32  29  88 SW30G40   29.55R WCI  17
MOUNT PLEASANT CLOUDY    34  32  92 SW23G40   29.40R WCI  22
6HR MIN TEMP:  33; 6HR MAX TEMP:  50; 6HR PCP:  0.14;

MUSKEGON       LGT SNOW  34  29  82 W24G40    29.47R VSB 1   WCI  21
6HR MIN TEMP:  33; 6HR MAX TEMP:  46; 6HR PCP:  0.38;

SOUTH HAVEN    FLURRIES  34  30  85 W18G37    29.57R WCI  23
$$
MIZ016>042-250100-
NORTHERN LOWER MICHIGAN

CITY           SKY/WX    TMP DP  RH WIND       PRES   REMARKS
ALPENA         LGT RAIN  44  40  85 W9        29.19R
6HR MIN TEMP:  44; 6HR MAX TEMP:  51; 6HR PCP:  0.16;

BEAVER ISLAND  LGT SNOW  33  32  96 NW8       29.24R WCI  26
6HR MIN TEMP:  33; 6HR MAX TEMP:  44;

BELLAIRE       LGT SNOW  35  33  93 W3        29.26R
CADILLAC       LGT SNOW  32  32  99 SW22G32   29.28R VSB 3/4 WCI  19
CHARLEVOIX     LGT SNOW  33  33 100 NW13      29.26R WCI  24
6HR MIN TEMP:  33; 6HR MAX TEMP:  43;

FRANKFORT      LGT SNOW  33  32  98 NW13G20   29.31R WCI  24
GAYLORD        FLURRIES  34  33  96 W7        29.20R WCI  28
6HR MIN TEMP:  33; 6HR MAX TEMP:  43; 6HR PCP:  0.07;

GRAYLING       MIX PCPN  36  34  95 SW13G22   29.25R WCI  27
HARBOR SPRINGS LGT RAIN  34  33  96 W5        29.22R WCI  30
HOUGHTON LAKE  LGT SNOW  33  31  92 SW15G29   29.29R FOG     WCI  23
6HR MIN TEMP:  33; 6HR MAX TEMP:  46; 6HR PCP:  0.29;

MANISTEE       CLOUDY    34  30  86 W3        29.33R
OSCODA         LGT SNOW  34  33  96 SW23G37   29.28R VSB 1   WCI  22
PELLSTON       LGT RAIN  35  33  92 W6        29.21R WCI  30
6HR MIN TEMP:  35; 6HR MAX TEMP:  44; 6HR PCP:  0.01;

ROGERS CITY    RAIN      39  39  99 W8        29.19R WCI  33
TRAVERSE CITY  LGT SNOW  34  32  92 NW6       29.27R WCI  29
6HR MIN TEMP:  34; 6HR MAX TEMP:  46; 6HR PCP:  0.21;

$$
MIZ007>008-015-250100-
EASTERN UPPER MICHIGAN

CITY           SKY/WX    TMP DP  RH WIND       PRES   REMARKS
KINROSS        CLOUDY    36  36 100 W12       29.15R WCI  27
6HR MIN TEMP:  36; 6HR MAX TEMP:  43;

MACKINAC ISLAN MIX PCPN  36  35  99 W9        29.18R WCI  29
6HR MIN TEMP:  36; 6HR MAX TEMP:  42; 6HR PCP:  0.44;

NEWBERRY       CLOUDY    32  31  96 NW10G16   29.19R FOG     WCI  23
S. S. MARIE    LGT RAIN  37  34  89 W8        29.14R WCI  31
6HR MIN TEMP:  37; 6HR MAX TEMP:  42; 6HR PCP:  0.01;

MUNISING         N/A     33  27  78 N25G35    29.29R WCI  20
6HR MIN TEMP:  32; 6HR MAX TEMP:  36; 6HR PCP:  0.02;

$$
MIZ004>006-011>014-085-250100-
CENTRAL UPPER MICHIGAN

CITY           SKY/WX    TMP DP  RH WIND       PRES   REMARKS
MANISTIQUE     LGT SNOW  31  28  88 NW14G24   29.23R WCI  21
ESCANABA       CLOUDY    28  23  80 NW13G20   29.31R WCI  18
6HR MIN TEMP:  28; 6HR MAX TEMP:  39;

MENOMINEE      CLOUDY    28  27  93 N13G18    29.38R VSB 1   WCI  18
6HR MIN TEMP:  28; 6HR MAX TEMP:  41;

SAWYER-GWINN   CLOUDY    27  23  86 NW17G26   29.29R WCI  14
$$
MIZ001>003-009>011-084-250100-
WESTERN UPPER MICHIGAN

CITY           SKY/WX    TMP DP  RH WIND       PRES   REMARKS
IRON MOUNTAIN  LGT SNOW  26  21  81 NW15      29.35R WCI  14
6HR MIN TEMP:  26; 6HR MAX TEMP:  33; 6HR PCP: TRACE;

HOUGHTON       FOG       24  20  84 N20G28    29.40R VSB 3/4 WCI  10
6HR MIN TEMP:  24; 6HR MAX TEMP:  26; 6HR PCP:  0.05;

COPPER HARBOR    N/A     29  24  82 NE26G37   29.40R WCI  14
6HR MIN TEMP:  29; 6HR MAX TEMP:  31;

IRONWOOD       CLOUDY    21  19  93 NW16G24   29.48R VSB 1   WCI   7
6HR MIN TEMP:  21; 6HR MAX TEMP:  28;

$$

ABBREVIATIONS USED IN REMARKS
   TC - TEMPERATURE IN CELSIUS
  WCI - WIND CHILL INDEX
   HX - HEAT INDEX
  VSB - VISIBILITY




USA.gov is the U.S. government's official web portal to all federal, state and local government web resources and services.